[[{"header":{"parameterUnit":"m.s-1","parameterCategory":1,"la1":30.2991,"la2":30.254,"lo1":-89.0895,"lo2":-89.0444,"dy":0.0017,"dx":0.0017,"nx":28,"ny":28,"refTime":"2024-08-29T03:00:00:Z","depth":0,"parameterNumber":2,"parameterNumberName":"U-component_of_WINDS"},"data":[0,0,0,0,0,0,0,0,0,0,0,0,0,0,0,0,0,0,0,0,0,0,0,0,0,0,0,0,0,0,0,0,0,0,0,0,0,0,0,0,0,0,0,0,0,0,0,0,0,0,0,0,0,0,0,0,0,0,-2.9421,-2.9422,0,-2.9513,-2.9514,-2.9515,-2.9504,-2.9503,-2.9501,-2.95,-2.9593,-2.9596,-2.96,0,0,0,0,0,0,0,0,0,0,0,0,0,-2.9237,-2.924,-2.9421,-2.9422,-2.9423,-2.9512,-2.9514,-2.9515,-2.9504,-2.9503,-2.9501,-2.9499,-2.9591,-2.9596,-2.96,0,0,0,0,0,0,0,0,0,0,0,0,0,-2.9321,-2.9241,-2.9421,-2.9429,-2.943,-2.9512,-2.9514,-2.9515,-2.9505,-2.9503,-2.95,-2.9498,-2.959,-2.9595,-2.9601,-2.968,0,0,-2.9619,-2.9621,0,0,0,0,0,0,0,0,-2.9316,-2.9328,-2.9426,-2.9428,-2.943,-2.9495,-2.9483,-2.9571,-2.9505,-2.9477,-2.95,-2.9497,-2.9562,-2.957,-2.9592,-2.9685,-2.9689,-2.9619,-2.9623,-2.9625,-2.9627,0,0,0,0,0,0,0,-2.9311,-2.9324,-2.9457,-2.9428,-2.943,-2.9428,-2.9437,-2.9499,-2.953,-2.9479,-2.9478,-2.9489,-2.9562,-2.9586,-2.9594,-2.969,-2.9619,-2.9624,-2.9628,-2.963,-2.9853,-2.9855,0,0,0,0,0,0,-2.9303,-2.9319,-2.9454,-2.946,-2.9367,-2.9433,-2.9444,-2.9476,-2.953,-2.9536,-2.9491,-2.9489,-2.9577,-2.9587,-2.9597,-2.9693,-2.9625,-2.963,-2.9634,-2.985,-2.9853,-2.9856,0,0,0,0,0,0,-2.9299,-2.9315,-2.945,-2.9389,-2.9407,-2.9438,-2.9475,-2.9479,-2.9503,-2.9539,-2.9544,-2.951,-2.9576,-2.9589,-2.966,-2.9696,-2.9633,-2.9638,-2.9847,-2.9851,-2.9855,-2.9886,0,0,0,0,0,0,-2.9294,-2.9314,-2.9344,-2.939,-2.941,-2.9512,-2.9477,-2.9483,-2.9513,-2.951,-2.9558,-2.9563,-2.9575,-2.9651,-2.9665,-2.9703,-2.9643,-2.9844,-2.9849,-2.9854,-2.9881,-2.989,-2.9897,0,0,0,0,0,-2.9287,-2.9349,-2.9346,-2.9362,-2.9449,-2.9514,-2.9525,-2.9538,-2.9516,-2.9547,-2.957,-2.9562,-2.969,-2.9659,-2.9675,-2.9714,-2.9842,-2.9848,-2.9853,-2.9878,-2.9888,-2.9897,0,0,0,0,0,0,-2.9306,-2.9355,-2.9352,-2.9431,-2.9468,-2.9512,-2.9551,-2.9548,-2.9593,-2.9589,-2.9602,-2.9613,-2.9685,-2.9707,-2.9671,-2.9794,-2.9763,-2.9772,-2.9776,-2.9787,-2.9794,-2.9787,-2.9648,0,0,0,0,0,-2.9319,-2.9368,-2.9409,-2.9474,-2.9493,-2.9519,-2.9548,-2.9555,-2.9594,-2.961,-2.9638,-2.9677,-2.9726,-2.9757,-2.9804,-2.9885,-2.9895,-2.992,-2.9928,-2.9934,-2.9942,-2.9986,-2.9997,-2.9874,-2.9874,-2.9874,0,0,-2.9347,-2.938,-2.941,-2.9479,-2.9509,-2.9559,-2.9533,-2.9587,-2.9625,-2.9618,-2.9687,-2.9709,-2.9753,-2.9829,-2.9864,-2.9849,-2.9978,-2.9941,-2.9946,-2.995,-2.9992,-3.0004,-3.0014,-2.9878,-2.9877,-2.9877,0,0,-2.9423,-2.9454,-2.9511,-2.9542,-2.9588,-2.9605,-2.9619,-2.9664,-2.9678,-2.9748,-2.9744,-2.9789,-2.9873,-2.9904,-2.9931,-3.002,-3.0014,-3.0035,-3.0076,-3.0118,-3.0128,-3.0137,-3.0168,-3.0179,-3.0043,-3.0043,-3.0043,0,-2.9452,-2.9528,-2.9541,-2.9597,-2.9627,-2.9624,-2.9682,-2.9712,-2.977,-2.9791,-2.9775,-2.988,-2.991,-2.9993,-3.0015,-3.0037,-3.0053,-3.0029,-3.0126,-3.0134,-3.0143,-3.0173,-3.0184,-3.0045,-3.0045,-3.0044,-3.0044,0,-2.9561,-2.9614,-2.9655,-2.9712,-2.9747,-2.9804,-2.9825,-2.9859,-2.9863,-2.9882,-2.9952,-2.9988,-3.0042,-3.0062,-3.0067,-3.0146,-3.0136,-3.0123,-3.0092,-3.0156,-3.0185,-3.0196,-3.0048,-3.0047,-3.0046,-3.0046,0,0,-2.965,-2.9715,-2.9729,-2.9755,-2.9806,-2.9847,-2.9904,-2.9957,-2.9986,-3.0027,-3.0074,-3.0146,-3.0134,-3.0164,-3.0172,-3.021,-3.0278,-3.0192,-3.0193,-3.0206,-3.0368,-3.0377,-3.039,-3.0275,-3.0277,-3.0279,-3.0364,0,-2.9731,-2.9831,-2.9845,-2.9933,-2.9982,-2.9981,-3.003,-3.0067,-3.0086,-3.013,-3.0151,-3.0202,-3.0182,-3.0201,-3.0238,-3.0262,-3.031,-3.0256,-3.0319,-3.0321,-3.0307,-3.0405,-3.0415,-3.0492,-3.0375,-3.0377,-3.0378,0,-2.9838,-2.9882,-2.9976,-3.002,-3.0041,-3.0085,-3.0135,-3.0178,-3.0219,-3.023,-3.0265,-3.0269,-3.0327,-3.0295,-3.0376,-3.0338,-3.0365,-3.0381,-3.0384,-3.0389,-3.0352,-3.0412,-3.0518,-3.0529,-3.0396,-3.0394,-3.0393,0,-2.9893,-2.9976,-3.0043,-3.0065,-3.0119,-3.015,-3.0173,-3.0213,-3.0244,-3.0288,-3.0308,-3.0358,-3.0385,-3.0424,-3.0441,-3.0416,-3.0521,-3.049,-3.0531,-3.0531,-3.0552,-3.055,-3.0663,-3.0571,-3.0571,-3.0571,-3.057,0,-2.9981,-3.0038,-3.0068,-3.0109,-3.0173,-3.0189,-3.0251,-3.0274,-3.0309,-3.0354,-3.0357,-3.0399,-3.0419,-3.0464,-3.0478,-3.0542,-3.0555,-3.0565,-3.0568,-3.0565,-3.0563,-3.0582,-3.0576,-3.0574,-3.0573,-3.0573,-3.0572,0,-3.0053,-3.0076,-3.0148,-3.0193,-3.0206,-3.0251,-3.0289,-3.0329,-3.0348,-3.0405,-3.0419,-3.0449,-3.0503,-3.0524,-3.059,-3.0599,-3.0673,-3.0672,-3.0659,-3.0659,-3.0699,-3.0695,-3.0826,-3.0844,-3.0742,-3.0742,-3.0743,0,-3.0108,-3.0151,-3.0201,-3.0232,-3.0256,-3.0306,-3.0338,-3.0355,-3.0388,-3.0439,-3.0472,-3.0526,-3.057,-3.0655,-3.0683,-3.0733,-3.0733,-3.0776,-3.074,-3.0735,-3.0732,-3.0729,-3.0734,-3.0782,-3.0783,-3.0783,-3.0784,0,-3.0201,-3.021,-3.0256,-3.0307,-3.0345,-3.0385,-3.0424,-3.0449,-3.0473,-3.051,-3.0565,-3.0599,-3.0666,-3.0719,-3.0771,-3.0795,-3.0793,-3.0795,-3.0807,-3.0804,-3.0794,-3.0799,-3.0676,-3.0792,-3.0791,-3.0791,-3.079,-3.079,-3.0266,-3.0305,-3.0346,-3.0397,-3.0428,-3.0465,-3.0504,-3.0529,-3.0575,-3.0631,-3.0639,-3.0697,-3.0738,-3.0808,-3.0834,-3.088,-3.0869,-3.0887,-3.0891,-3.0895,-3.0897,-3.0788,-3.089,-3.089,-3.089,-3.0889,-3.0889,0,-3.0359,-3.0386,-3.0433,-3.0488,-3.0528,-3.0524,-3.0567,-3.0601,-3.0653,-3.0691,-3.0734,-3.0797,-3.0849,-3.0881,-3.0933,-3.0964,-3.0964,-3.0977,-3.0974,-3.0979,-3.0905,-3.0889,-3.0975,-3.0975,-3.0975,-3.0975,-3.0975,-3.0975,-3.0412,-3.0478,-3.0492,-3.0573,-3.0599,-3.0656,-3.0682,-3.0715,-3.0746,-3.0816,-3.0859,-3.088,-3.0916,-3.097,-3.1018,-3.1026,-3.1044,-3.1057,-3.1064,-3.0994,-3.0985,-3.0976,-3.0961,-3.1062,-3.1062,-3.1135,-3.1136,-3.1137]},{"header":{"parameterUnit":"m.s-1","parameterCategory":1,"la1":30.2991,"la2":30.254,"lo1":-89.0895,"lo2":-89.0444,"dy":0.0017,"dx":0.0017,"nx":28,"ny":28,"refTime":"2024-08-29T03:00:00:Z","depth":0,"parameterNumber":3,"parameterNumberName":"V-component_of_WINDS"},"data":[0,0,0,0,0,0,0,0,0,0,0,0,0,0,0,0,0,0,0,0,0,0,0,0,0,0,0,0,0,0,0,0,0,0,0,0,0,0,0,0,0,0,0,0,0,0,0,0,0,0,0,0,0,0,0,0,0,0,3.1716,3.1716,0,3.1728,3.1728,3.1728,3.1684,3.1683,3.1682,3.168,3.1691,3.1693,3.1694,0,0,0,0,0,0,0,0,0,0,0,0,0,3.1655,3.1656,3.1716,3.1716,3.1716,3.1728,3.1728,3.1728,3.1684,3.1683,3.1681,3.168,3.1691,3.1692,3.1694,0,0,0,0,0,0,0,0,0,0,0,0,0,3.1676,3.1657,3.1716,3.1696,3.1694,3.1728,3.1728,3.1728,3.1685,3.1683,3.1681,3.1679,3.169,3.1692,3.1694,3.1747,0,0,3.1701,3.1702,0,0,0,0,0,0,0,0,3.1675,3.1678,3.1699,3.1697,3.1696,3.1703,3.171,3.1735,3.1685,3.1688,3.168,3.1678,3.1696,3.1698,3.1704,3.1748,3.1748,3.1702,3.1703,3.1704,3.1704,0,0,0,0,0,0,0,3.1673,3.1677,3.1721,3.1699,3.1697,3.1686,3.1687,3.1715,3.1703,3.1688,3.1685,3.1687,3.1695,3.1702,3.1704,3.1748,3.1701,3.1703,3.1705,3.1706,3.1836,3.1838,0,0,0,0,0,0,3.1675,3.1676,3.172,3.1721,3.168,3.1689,3.169,3.1702,3.1703,3.1701,3.1688,3.1685,3.17,3.1702,3.1705,3.1766,3.1704,3.1706,3.1707,3.1834,3.1837,3.1839,0,0,0,0,0,0,3.1673,3.1679,3.172,3.1698,3.1702,3.1692,3.1706,3.1703,3.1711,3.1703,3.1701,3.1698,3.1698,3.1701,3.1737,3.1766,3.1707,3.1709,3.1832,3.1835,3.1838,3.189,0,0,0,0,0,0,3.1672,3.1679,3.1699,3.1699,3.1704,3.1752,3.1708,3.1705,3.1715,3.171,3.1711,3.171,3.1697,3.1734,3.1739,3.1768,3.1711,3.1829,3.1833,3.1837,3.1886,3.1895,3.1903,0,0,0,0,0,3.167,3.1713,3.17,3.1705,3.1728,3.1754,3.1757,3.1741,3.1717,3.1737,3.1733,3.171,3.1763,3.1738,3.1744,3.1773,3.1827,3.1832,3.1837,3.1882,3.1893,3.1902,0,0,0,0,0,0,3.1715,3.1712,3.1698,3.1742,3.1749,3.1747,3.1771,3.1753,3.1767,3.1761,3.1741,3.1742,3.1781,3.1781,3.1754,3.1825,3.1791,3.1797,3.1823,3.1834,3.1842,3.184,3.1713,0,0,0,0,0,3.1731,3.1752,3.1748,3.1788,3.1792,3.1781,3.1792,3.178,3.1785,3.1788,3.1786,3.1792,3.181,3.1822,3.1838,3.1886,3.1886,3.191,3.1918,3.1925,3.193,3.1955,3.1966,3.1855,3.1855,3.1855,0,0,3.1762,3.1763,3.1778,3.1797,3.18,3.1823,3.1784,3.1809,3.1825,3.1791,3.1825,3.1824,3.183,3.1872,3.1891,3.1873,3.1961,3.1931,3.1937,3.1938,3.1961,3.1972,3.1981,3.1858,3.1857,3.1857,0,0,3.1831,3.1834,3.1867,3.1872,3.1879,3.1872,3.188,3.1881,3.1879,3.1913,3.1888,3.1907,3.1939,3.1944,3.195,3.2023,3.2003,3.2029,3.2072,3.2097,3.2106,3.2113,3.2138,3.2148,3.2035,3.2035,3.2035,0,3.1869,3.1902,3.1886,3.1914,3.1922,3.1894,3.1927,3.1933,3.1944,3.1951,3.1932,3.1971,3.1973,3.2016,3.2034,3.2041,3.2049,3.2028,3.2106,3.2113,3.212,3.2144,3.2154,3.2038,3.2037,3.2037,3.2037,0,3.1948,3.1972,3.1998,3.201,3.2022,3.2052,3.2041,3.2055,3.2043,3.2038,3.2073,3.2075,3.2091,3.21,3.2088,3.2142,3.2131,3.2109,3.2074,3.2134,3.2156,3.2165,3.2042,3.2041,3.204,3.2039,0,0,3.2043,3.2048,3.2058,3.2063,3.207,3.2087,3.2117,3.2133,3.2145,3.2155,3.2178,3.2207,3.2187,3.2195,3.2183,3.2205,3.2262,3.2181,3.218,3.2195,3.2321,3.2336,3.2347,3.2249,3.2251,3.2252,3.232,0,3.211,3.216,3.2148,3.2197,3.2219,3.2193,3.2219,3.2225,3.2222,3.224,3.2236,3.2256,3.2229,3.2233,3.2254,3.2251,3.2287,3.2246,3.227,3.2271,3.2268,3.2359,3.2375,3.2439,3.2329,3.233,3.2331,0,3.2194,3.2207,3.2259,3.2263,3.2271,3.2294,3.2309,3.2326,3.2333,3.2329,3.2339,3.2323,3.2352,3.2318,3.2358,3.233,3.234,3.234,3.2342,3.2342,3.2304,3.236,3.2459,3.2468,3.2345,3.2344,3.2343,0,3.2257,3.2289,3.2324,3.2329,3.2334,3.2351,3.2354,3.2359,3.237,3.2383,3.239,3.2406,3.2414,3.2427,3.2416,3.2392,3.2457,3.2422,3.2454,3.2454,3.2467,3.2466,3.2567,3.2476,3.2476,3.2475,3.2475,0,3.2332,3.2364,3.2352,3.2374,3.2409,3.2395,3.2431,3.2431,3.2436,3.2457,3.2437,3.2457,3.2442,3.246,3.2452,3.2486,3.249,3.2487,3.2484,3.2488,3.2488,3.2493,3.2488,3.2478,3.2477,3.2477,3.2476,0,3.2408,3.2401,3.2437,3.244,3.2441,3.2467,3.2469,3.2489,3.2485,3.2512,3.2517,3.2511,3.2532,3.2523,3.2545,3.254,3.2583,3.2574,3.258,3.2577,3.2609,3.2606,3.2716,3.2729,3.263,3.2631,3.2632,0,3.2455,3.248,3.2485,3.2498,3.2502,3.2523,3.2535,3.2522,3.2535,3.2546,3.2565,3.2584,3.2599,3.2634,3.2631,3.2648,3.2639,3.2677,3.2642,3.2645,3.2639,3.2637,3.2639,3.2683,3.2684,3.2685,3.2686,0,3.254,3.2535,3.2553,3.257,3.2584,3.2597,3.2607,3.2619,3.2607,3.2622,3.2644,3.2656,3.2679,3.2699,3.2714,3.2717,3.2699,3.2698,3.2705,3.2709,3.2711,3.2709,3.2598,3.2694,3.2694,3.2693,3.2693,3.2692,3.2602,3.2623,3.263,3.265,3.2657,3.2668,3.2687,3.2686,3.2704,3.2722,3.2714,3.2739,3.2747,3.2766,3.2771,3.279,3.2775,3.2787,3.279,3.2793,3.2797,3.2709,3.2793,3.2793,3.2793,3.2792,3.2792,0,3.2684,3.2688,3.2707,3.2723,3.274,3.2723,3.2735,3.2749,3.2772,3.278,3.2796,3.2821,3.284,3.284,3.2858,3.2873,3.2866,3.2878,3.2876,3.2877,3.2809,3.28,3.2884,3.2884,3.2884,3.2884,3.2884,3.2884,3.2729,3.2763,3.276,3.2798,3.2802,3.2827,3.2834,3.2844,3.2851,3.288,3.2897,3.2897,3.2902,3.292,3.2937,3.2936,3.2943,3.2958,3.2955,3.2891,3.2882,3.2873,3.2864,3.296,3.2961,3.3021,3.3021,3.3022]}]]